Theta_e
316 312 311 311 311 312 314 314 314 316 317 319 319 318 318 320 324 328 329 332 335 333 342 347 348 348 347 344 341 338 333 326 323 317 316 318 319 319 319 318 319 318 319 318
313 312 312 313 313 313 313 313 314 314 315 317 317 319 320 319 320 324 330 329 330 328 336 341 342 341 338 337 337 335 332 320 317 317 315 316 319 319 319 319 319 318 319 318
311 313 315 314 314 315 313 313 313 314 315 315 317 317 319 321 322 324 325 330 330 328 333 336 336 334 334 333 332 328 325 318 317 316 316 321 319 319 319 320 319 319 319 318
313 314 315 316 316 315 315 316 315 316 315 314 314 315 314 319 323 322 323 324 328 327 330 332 332 333 330 328 328 325 324 319 317 316 315 318 319 319 319 320 318 320 320 318
316 317 317 317 317 317 317 317 317 317 315 315 316 312 313 317 318 321 320 321 326 329 327 330 330 329 327 327 326 325 324 319 318 317 315 318 320 321 321 321 319 321 320 319
315 318 317 317 318 317 318 317 316 314 312 314 315 313 313 313 317 318 318 322 322 324 326 326 327 327 326 327 326 326 325 322 318 318 316 316 319 323 325 325 320 322 321 319
316 316 317 318 318 317 317 314 314 315 315 316 316 315 312 315 316 317 318 320 322 323 324 325 326 327 327 326 326 326 325 324 320 318 318 316 320 326 327 326 321 322 321 320
317 317 317 318 317 317 315 314 315 316 316 318 318 319 319 316 317 320 320 321 322 322 322 324 325 325 325 325 325 326 326 325 323 321 319 318 319 326 326 323 322 321 322 319
320 321 319 321 319 317 317 316 314 316 317 317 317 318 319 320 319 319 320 321 323 323 322 322 324 325 325 325 325 326 326 326 325 324 322 321 319 321 323 322 321 321 321 319
311 318 321 322 322 321 317 316 318 314 317 317 317 319 320 318 319 319 319 319 321 323 322 321 324 326 326 325 325 326 326 326 326 326 325 324 323 322 323 323 321 320 319 319
308 312 318 318 321 319 319 319 320 317 315 318 316 317 316 323 320 320 320 321 322 324 324 322 324 327 327 327 327 327 326 326 327 327 327 327 326 325 324 323 321 319 319 320
306 309 311 313 313 316 320 313 317 323 324 321 317 319 319 321 322 321 322 322 321 323 326 327 327 326 326 327 327 326 327 327 327 327 328 327 326 327 327 326 321 319 320 320
306 309 309 311 312 309 310 311 311 316 322 322 321 319 321 321 318 318 320 321 322 323 323 324 326 325 327 327 327 327 329 329 328 328 328 327 327 326 322 320 320 321 320 320
306 306 309 311 309 305 306 307 309 313 317 322 323 321 321 321 319 317 317 323 322 322 323 324 327 328 328 328 327 328 329 330 329 329 327 326 324 320 320 322 322 321 321 321
303 304 306 305 306 303 303 304 305 307 311 319 318 317 321 319 318 316 316 317 322 323 322 322 324 326 328 330 330 330 330 330 328 327 326 324 321 322 323 322 322 322 322 322
300 300 303 303 303 303 302 302 303 306 309 310 310 316 315 317 318 317 316 314 315 320 322 323 321 323 325 325 327 330 330 325 324 323 321 320 321 322 323 324 324 324 323 322
297 298 298 301 301 301 302 302 304 304 305 308 310 309 309 311 317 316 315 314 315 317 321 322 321 321 321 324 324 324 325 327 327 323 323 323 323 325 326 326 325 324 322 320
299 297 297 300 300 302 301 303 303 303 305 306 307 307 305 307 309 314 315 314 315 316 321 321 322 322 321 321 321 322 325 325 326 326 324 324 326 326 327 326 323 321 321 318
298 298 297 296 300 302 302 302 303 302 302 304 303 304 307 310 309 313 312 313 312 311 314 320 321 321 322 321 320 320 322 325 325 325 325 326 326 325 324 322 321 321 318 317
301 300 299 299 304 304 301 302 303 302 303 303 303 307 309 311 310 314 313 312 314 312 313 314 316 316 317 321 321 318 320 319 325 325 325 324 323 322 322 322 320 317 317 316
302 303 301 296 300 300 303 304 304 304 304 308 308 308 309 309 311 313 309 311 312 314 315 315 315 316 317 318 319 321 319 321 324 325 325 324 324 323 322 321 320 318 315 309
303 302 298 300 299 302 303 304 304 303 305 306 307 307 307 308 309 310 311 309 311 313 314 314 314 315 315 316 316 315 318 321 320 322 323 322 322 322 322 321 317 312 306 306
304 303 303 303 300 299 302 303 303 303 305 305 305 304 304 306 306 307 308 310 311 312 312 311 312 312 312 313 317 322 323 323 322 323 322 322 321 320 318 314 307 306 306 307
302 302 303 303 302 302 302 302 302 303 302 303 305 305 304 304 304 307 308 308 310 310 311 311 311 311 310 311 312 319 320 319 319 319 320 320 319 317 310 306 306 306 306 306
303 303 303 303 302 302 302 302 302 302 302 303 305 305 304 304 304 307 308 307 309 308 309 311 311 311 310 310 314 317 318 320 320 319 316 314 311 307 306 306 306 306 305 304
303 303 303 302 302 302 301 302 302 302 303 303 303 305 305 304 304 305 306 306 308 308 309 309 309 311 311 312 316 317 316 316 315 313 311 308 306 306 305 305 305 305 303 304
Wind_Speed
10 3 6 9 7 7 4 6 8 7 9 4 9 8 10 10 20 23 22 31 40 39 45 48 49 47 46 41 34 27 22 21 22 24 25 25 23 19 15 11 8 3 1 3
4 8 8 8 7 8 7 8 18 8 10 6 11 12 14 8 10 22 33 29 33 36 45 50 50 48 43 39 34 28 23 22 23 21 23 23 23 19 14 12 9 5 3 4
8 6 8 8 11 10 11 12 9 12 10 6 7 8 16 9 14 39 33 45 44 40 48 50 50 46 43 40 38 31 27 25 24 22 25 25 23 19 19 15 12 7 5 6
9 7 12 12 10 10 15 10 14 16 5 9 8 9 6 7 18 24 38 39 45 45 52 54 53 52 48 45 41 34 30 28 27 26 30 32 31 28 21 14 12 9 8 9
12 7 9 11 13 9 14 16 18 8 6 1 3 3 8 2 8 20 21 33 47 52 52 57 58 55 51 48 44 40 33 31 32 30 32 33 30 25 19 18 15 13 12 11
11 12 8 8 10 7 8 7 0 3 4 0 12 8 6 5 8 6 9 32 38 46 51 59 60 58 54 51 48 44 38 35 37 35 34 35 32 29 26 24 20 17 13 13
5 10 9 11 11 10 3 4 4 3 1 8 4 2 8 7 9 9 9 21 36 42 50 55 56 58 58 57 53 49 44 40 41 39 37 38 35 31 30 28 22 17 15 16
4 10 5 5 9 10 8 8 6 8 5 12 3 4 14 9 16 24 25 31 31 27 41 56 62 64 64 60 56 54 48 45 42 40 39 37 35 34 31 29 23 18 18 18
6 6 13 13 7 5 11 5 9 5 2 1 4 7 7 2 8 9 23 26 33 29 33 52 62 65 66 62 59 56 51 49 43 41 37 36 35 34 32 28 24 22 22 20
8 7 7 9 8 3 3 4 4 2 6 6 3 4 13 9 12 9 12 18 17 17 23 42 48 58 61 62 61 56 55 49 45 39 36 34 28 28 31 29 26 25 22 19
11 1 8 10 5 12 8 7 5 3 4 8 3 7 4 2 7 10 7 3 22 26 24 35 42 47 51 55 57 55 51 49 44 37 33 30 25 28 32 30 29 26 21 17
6 3 4 7 18 11 2 13 9 3 6 3 3 8 10 17 17 23 9 2 12 20 28 26 22 27 41 44 45 45 47 46 42 38 32 26 24 26 27 28 26 22 18 15
7 4 6 11 4 11 8 19 18 10 2 3 1 4 12 16 19 27 26 24 24 20 18 19 21 18 25 32 36 41 44 44 44 38 31 26 23 22 21 20 20 17 15 16
7 2 2 3 3 9 9 16 15 9 2 2 10 10 12 9 12 18 30 27 25 30 27 22 16 18 22 28 36 40 42 41 38 34 29 25 22 20 17 15 14 15 16 18
4 4 4 8 12 15 15 15 14 16 12 5 5 7 2 3 5 9 20 24 18 14 24 25 20 17 14 22 27 28 29 30 30 30 26 22 20 16 15 16 17 17 19 21
3 5 5 12 12 14 18 19 13 15 15 10 6 4 6 9 9 15 16 21 21 15 8 0 16 14 16 11 11 25 31 26 27 26 22 20 20 20 22 22 23 23 22 21
5 3 2 13 10 13 14 10 6 13 15 8 5 1 9 9 7 4 8 14 22 9 6 4 7 11 11 9 6 5 11 32 38 28 26 26 27 29 28 27 26 24 21 23
7 4 4 9 5 11 9 8 14 16 15 17 12 3 9 8 16 5 5 4 9 5 11 3 10 6 2 2 4 4 2 14 35 37 32 31 30 29 27 26 24 22 22 24
9 4 2 2 4 13 16 13 13 12 17 6 12 15 7 11 4 3 8 17 6 5 6 13 9 5 15 5 8 9 6 16 20 33 32 27 27 27 25 21 20 22 25 27
2 5 5 2 5 7 11 6 13 16 15 13 14 2 4 3 2 3 14 3 14 1 6 3 4 6 9 7 16 15 4 9 5 18 24 24 21 18 18 19 22 24 27 31
2 2 5 5 6 8 7 12 14 5 6 4 4 3 9 1 2 7 17 22 3 4 8 8 4 3 5 7 5 7 16 12 12 13 17 22 22 21 21 21 26 30 31 30
6 4 4 3 4 10 2 3 6 4 11 8 4 6 4 4 4 6 9 22 18 1 4 3 5 6 0 3 6 13 18 19 18 20 19 19 18 19 21 25 29 28 26 27
6 11 5 8 7 8 15 12 24 20 22 13 17 20 14 9 11 11 12 9 11 14 5 3 5 3 2 2 5 19 20 19 19 24 23 19 18 18 22 25 23 21 23 26
7 20 10 11 20 25 30 34 36 27 29 27 22 24 22 18 17 18 15 12 12 8 10 9 6 5 5 5 5 11 12 17 18 17 17 17 19 22 21 17 18 20 23 26
11 7 12 15 19 23 29 28 33 36 35 27 23 21 25 26 20 20 17 12 15 13 10 9 6 5 7 6 9 15 20 20 20 20 19 18 16 14 14 15 17 20 22 26
8 15 9 11 19 14 21 28 26 27 30 28 23 16 22 24 23 21 17 15 17 17 11 10 11 11 8 6 18 22 19 17 17 15 14 13 11 11 14 16 18 18 20 19
Wind_Direction
225 155 213 233 220 195 237 256 260 260 264 254 249 235 250 215 190 184 201 196 188 181 174 174 174 175 177 182 182 187 189 197 212 206 197 197 197 194 194 191 196 207 315 336
322 233 228 226 232 244 244 248 263 285 259 179 262 261 273 227 190 196 198 207 202 181 176 174 175 176 183 186 189 195 211 221 216 213 204 202 198 196 202 202 210 226 248 303
197 232 228 221 244 243 246 238 259 244 272 231 216 265 254 232 170 239 213 205 202 192 181 180 180 186 189 198 202 214 222 210 208 209 200 197 198 203 207 209 219 232 246 291
235 231 238 248 243 227 254 243 239 246 236 253 152 259 269 240 219 210 223 202 207 198 191 190 190 190 196 207 209 214 214 206 199 202 202 202 206 208 215 217 229 236 255 282
239 239 260 259 249 242 251 254 238 202 193 171 233 121 258 197 242 225 220 196 204 206 199 195 196 199 204 205 209 208 206 204 200 200 206 206 212 218 219 222 235 237 254 278
231 231 219 238 262 252 266 273 100 77 116 348 252 178 244 215 223 261 222 207 213 207 204 205 204 201 202 202 204 202 203 206 205 203 206 212 215 217 217 221 230 236 252 269
235 234 244 254 272 282 229 68 277 306 354 224 241 204 219 233 238 225 252 238 211 215 208 204 197 198 200 199 204 203 202 206 206 207 210 213 213 215 219 226 229 236 249 266
301 266 201 222 200 243 237 170 178 216 201 260 108 218 263 220 245 258 256 259 267 232 219 211 207 206 204 203 206 204 203 206 206 209 214 215 214 215 223 228 227 236 249 267
343 285 324 309 296 165 273 211 198 166 233 24 207 276 282 352 315 272 264 247 244 250 226 215 205 205 206 204 206 206 209 207 209 210 214 218 220 222 221 222 229 237 251 264
344 297 304 334 332 355 218 244 231 347 181 241 255 207 255 343 302 301 308 219 216 218 217 207 196 198 207 206 208 207 211 212 210 209 214 219 223 233 231 226 229 240 254 262
5 20 310 344 352 15 346 347 323 325 145 223 210 253 204 268 334 319 21 64 136 131 145 184 189 194 199 204 205 208 211 213 209 210 213 213 220 228 235 237 237 242 252 267
343 286 303 285 294 329 105 23 9 87 297 7 180 246 38 23 15 17 317 350 80 109 117 118 132 178 199 205 207 213 215 217 213 211 212 208 218 221 228 230 233 243 255 267
337 4 323 318 12 27 14 351 338 320 335 208 121 256 30 31 23 14 23 18 76 88 80 117 142 154 170 193 205 211 213 215 210 209 208 209 216 220 215 218 232 244 259 276
33 32 55 288 331 316 321 331 329 312 293 266 239 302 4 34 29 6 19 15 30 63 68 75 110 139 173 190 199 206 209 211 204 203 207 211 211 210 219 230 243 256 271 282
123 207 223 273 280 301 301 308 322 307 294 237 305 305 247 35 67 47 22 12 347 28 51 55 75 97 133 167 186 200 201 195 194 196 203 210 207 215 226 235 246 255 265 276
186 264 262 279 290 288 290 296 294 270 285 273 278 273 1 316 5 44 22 355 347 337 348 176 61 88 108 115 158 183 189 189 191 196 200 205 213 221 229 235 241 248 257 273
190 194 240 279 278 284 284 257 282 299 292 305 280 66 7 9 351 0 11 351 320 343 257 236 131 88 94 120 129 145 219 210 204 206 211 217 221 227 229 231 234 241 253 267
229 170 172 273 278 262 251 209 244 258 264 275 277 17 334 328 340 225 339 109 18 357 30 197 224 226 182 110 92 93 311 240 223 219 222 224 228 226 224 223 228 243 263 275
202 156 254 203 230 267 284 252 242 241 261 260 295 300 322 319 286 82 83 39 353 39 58 62 83 214 224 235 308 313 37 352 226 226 228 218 211 207 209 224 246 265 274 284
256 171 161 159 250 264 248 269 274 256 267 260 260 224 352 334 184 238 211 341 13 49 206 4 42 80 103 207 251 272 302 308 256 199 193 191 192 205 229 252 266 276 286 289
204 252 204 211 234 266 259 248 266 236 246 149 190 232 106 90 307 206 220 235 292 53 102 137 193 137 119 163 154 259 240 245 235 226 228 229 233 239 247 267 282 289 290 291
192 187 212 214 195 268 126 345 181 228 300 158 206 249 178 188 235 259 239 238 226 243 212 135 203 214 152 62 223 248 238 223 235 254 226 229 239 255 268 279 286 284 286 291
244 214 233 212 216 224 226 214 276 276 261 255 275 280 255 227 236 229 268 235 231 228 191 178 223 268 288 195 189 201 205 218 213 216 227 236 246 264 278 276 276 283 290 297
246 245 246 248 245 253 264 266 267 260 274 267 261 263 253 240 250 233 226 252 239 225 218 241 260 277 306 298 248 248 233 205 207 223 243 257 261 262 265 271 282 291 298 303
257 270 250 252 262 266 263 258 258 266 267 266 264 261 258 244 245 238 238 235 220 243 238 235 262 288 292 308 236 237 238 237 239 239 241 247 252 257 268 281 293 299 305 312
222 250 241 253 255 238 262 264 265 263 261 274 275 262 243 234 245 242 237 238 226 225 231 237 232 248 258 247 207 215 223 223 231 243 251 255 262 276 287 292 294 302 309 311